Tacoma, WA

8:57 PM PDT on August 26, 2016 (GMT -0700)
McChord Air Force Base

Weather History for KTCM - November, 2013

Change the Weather History Date:

Friday, November 1, 2013

  Actual Average Record
Temperature  
Mean Temperature 50 °F -  
Max Temperature 59 °F 53 °F 66 °F (1981)
Min Temperature 42 °F 34 °F 17 °F (2002)
Degree Days  
Heating Degree Days 14    
Moisture  
Dew Point 49 °F    
Average Humidity 97    
Maximum Humidity 100    
Minimum Humidity 72    
Precipitation  
Precipitation 0.01 in - - ()
Sea Level Pressure  
Sea Level Pressure 30.20 in    
Wind  
Wind Speed 3 mph (SSE)    
Max Wind Speed 5 mph    
Max Gust Speed -    
Visibility 6 miles    
Events Fog , Rain    
Averages and records for this station are not official NWS values.
T = Trace of Precipitation, MM = Missing Value Source: NWS Daily Summary

Daily Weather History Graph

Daily Weather History Graph

Search for Another Location

Airport or City:

Trip Planner

Search our weather history database for the weather conditions in past years. The results will help you decide how hot, cold, wet, or windy it might be!

Date:

Astronomy

Nov. 01, 2013 Rise Set
Actual Time 7:53 AM PDT 5:52 PM PDT
Civil Twilight 7:21 AM PDT 6:24 PM PDT
Nautical Twilight 6:45 AM PDT 7:00 PM PDT
Astronomical Twilight 6:09 AM PDT 7:36 PM PDT
Moon 5:45 AM PDT (11/1) 4:54 PM PDT (11/1)
Length of Visible Light 11h 03m
Length of Day
9h 59m
Waning Crescent, 4% of the Moon is Illuminated
Nov 1
Waning Crescent
Nov 3
New
Nov 9
First Quarter
Nov 17
Full
Nov 25
Last Quarter

Hourly Weather History & Observations

Time (PDT) Temp. Windchill Dew Point Humidity Pressure Visibility Wind Dir Wind Speed Gust Speed Precip Events Conditions
12:03 AM 51.8 °F - 51.8 °F 100% 30.27 in 6.0 mi SSE 3.5 mph - N/A   Overcast
12:08 AM 51.8 °F - 51.8 °F 100% 30.27 in 6.0 mi South 3.5 mph - N/A   Overcast
12:13 AM 51.8 °F - 51.8 °F 100% 30.27 in 9.0 mi South 3.5 mph - N/A   Overcast
12:23 AM 51.8 °F - 51.8 °F 100% 30.27 in 10.0 mi South 4.6 mph - N/A   Overcast
12:48 AM 51.8 °F - 51.8 °F 100% 30.28 in 9.0 mi South 3.5 mph - N/A   Overcast
12:53 AM 51.8 °F - 51.8 °F 100% 30.28 in 9.0 mi South 4.6 mph - N/A   Overcast
12:58 AM 51.6 °F - 51.6 °F 100% 30.30 in 9.0 mi South 4.6 mph - N/A   Overcast
1:08 AM 51.8 °F - 51.8 °F 100% 30.28 in 9.0 mi SSW 2.3 mph - N/A   Overcast
1:13 AM 51.8 °F - 51.8 °F 100% 30.29 in 9.0 mi SSW 2.3 mph - N/A   Overcast
1:23 AM 51.8 °F - 51.8 °F 100% 30.29 in 7.0 mi South 2.3 mph - N/A   Overcast
1:28 AM 51.8 °F - 51.8 °F 100% 30.29 in 7.0 mi South 1.2 mph - N/A   Overcast
1:38 AM 51.8 °F - 51.8 °F 100% 30.29 in 7.0 mi South 2.3 mph - N/A   Overcast
1:43 AM 51.8 °F - 51.8 °F 100% 30.29 in 9.0 mi South 3.5 mph - N/A   Overcast
1:58 AM 50.9 °F - 50.9 °F 100% 30.31 in 5.0 mi SSE 3.5 mph - N/A   Overcast
2:13 AM 51.8 °F - 51.8 °F 100% 30.28 in 8.0 mi South 3.5 mph - N/A   Overcast
2:33 AM 51.8 °F - 51.8 °F 100% 30.28 in 10.0 mi South 4.6 mph - N/A   Overcast
2:58 AM 50.5 °F - 50.5 °F 100% 30.30 in 9.0 mi SW 3.5 mph - N/A   Overcast
3:38 AM 50.0 °F - 50.0 °F 100% 30.28 in 9.0 mi South 3.5 mph - N/A   Overcast
3:58 AM 48.2 °F - 48.2 °F 100% 30.30 in 9.0 mi South 3.5 mph - N/A   Overcast
4:43 AM 48.2 °F - 48.2 °F 100% 30.29 in 10.0 mi SSW 2.3 mph - N/A   Overcast
4:58 AM 48.6 °F - 48.6 °F 100% 30.30 in 6.0 mi South 3.5 mph - N/A   Overcast
5:33 AM 48.2 °F - 48.2 °F 100% 30.27 in 5.0 mi SSE 2.3 mph - N/A   Scattered Clouds
5:43 AM 48.2 °F - 48.2 °F 100% 30.27 in 2.5 mi SSE 1.2 mph - N/A   Partly Cloudy
5:48 AM 46.4 °F - 46.4 °F 100% 30.27 in 0.5 mi East 1.2 mph - N/A Fog Fog
5:53 AM 46.4 °F - 46.4 °F 100% 30.27 in 0.2 mi East 1.2 mph - N/A Fog Fog
5:58 AM 45.9 °F - 45.9 °F 100% 30.29 in 0.2 mi Calm Calm - N/A Fog Fog
6:03 AM 46.4 °F - 46.4 °F 100% 30.27 in 0.2 mi Calm Calm - N/A Fog Fog
6:08 AM 46.4 °F - 46.4 °F 100% 30.27 in 0.5 mi SSW 1.2 mph - N/A Fog Fog
6:18 AM 42.8 °F - 42.8 °F 100% 30.27 in 0.2 mi SSE 2.3 mph - N/A Fog Fog
6:28 AM 42.8 °F - 42.8 °F 100% 30.27 in 0.2 mi SSE 2.3 mph - N/A Fog Fog
6:33 AM 42.8 °F - 42.8 °F 100% 30.27 in 0.5 mi SSE 1.2 mph - N/A Fog Fog
6:43 AM 44.6 °F - 44.6 °F 100% 30.27 in 0.2 mi Calm Calm - N/A Fog Fog
6:48 AM 44.6 °F - 44.6 °F 100% 30.26 in 0.5 mi Calm Calm - N/A Fog Fog
6:53 AM 42.8 °F - 42.8 °F 100% 30.27 in 0.5 mi Calm Calm - N/A Fog Fog
6:58 AM 43.3 °F - 43.3 °F 100% 30.29 in 0.5 mi Calm Calm - 0.01 in Fog Fog
7:03 AM 44.6 °F - 44.6 °F 100% 30.26 in 0.2 mi East 1.2 mph - N/A Fog Fog
7:08 AM 42.8 °F - 42.8 °F 100% 30.26 in 0.5 mi East 2.3 mph - N/A Fog Fog
7:13 AM 42.8 °F - 42.8 °F 100% 30.26 in 0.8 mi East 2.3 mph - N/A   Mostly Cloudy
7:18 AM 42.8 °F 41.1 °F 42.8 °F 100% 30.26 in 0.8 mi East 3.5 mph - N/A   Mostly Cloudy
7:33 AM 44.6 °F 42.2 °F 44.6 °F 100% 30.25 in 0.8 mi ESE 4.6 mph - N/A   Mostly Cloudy
7:38 AM 44.6 °F 42.2 °F 44.6 °F 100% 30.25 in 0.5 mi ESE 4.6 mph - N/A Fog Fog
7:48 AM 44.6 °F - 44.6 °F 100% 30.25 in 0.5 mi SE 2.3 mph - N/A Fog Fog
7:53 AM 44.6 °F - 44.6 °F 100% 30.25 in 1.8 mi SE 1.2 mph - N/A   Mostly Cloudy
7:58 AM 45.5 °F - 45.5 °F 100% 30.28 in 3.0 mi Calm Calm - N/A   Mostly Cloudy
8:58 AM 46.0 °F - 46.0 °F 100% 30.28 in 7.0 mi SSE 1.2 mph - N/A   Overcast
9:58 AM 50.4 °F - 50.4 °F 100% 30.27 in 10.0 mi SSE 2.3 mph - N/A   Mostly Cloudy
10:58 AM 54.1 °F - 54.1 °F 100% 30.25 in 10.0 mi SSE 2.3 mph - N/A   Partly Cloudy
11:58 AM 57.4 °F - 50.9 °F 79% 30.22 in 10.0 mi South 4.6 mph - N/A   Overcast
12:58 PM 59.0 °F - 50.4 °F 73% 30.19 in 10.0 mi Calm Calm - N/A   Overcast
1:58 PM 59.0 °F - 50.0 °F 72% 30.17 in 10.0 mi WNW 2.3 mph - N/A   Overcast
2:58 PM 58.1 °F - 51.3 °F 78% 30.14 in 10.0 mi Calm Calm - N/A   Overcast
3:58 PM 59.0 °F - 51.3 °F 75% 30.12 in 10.0 mi Calm Calm - N/A   Overcast
4:58 PM 59.2 °F - 50.5 °F 73% 30.09 in 9.0 mi Calm Calm - N/A   Overcast
5:58 PM 56.5 °F - 51.6 °F 84% 30.04 in 10.0 mi NW 1.2 mph - N/A   Scattered Clouds
6:58 PM 53.1 °F - 52.5 °F 98% 30.01 in 10.0 mi SSW 2.3 mph - N/A   Overcast
7:58 PM 49.8 °F - 49.8 °F 100% 29.98 in 10.0 mi SSE 4.6 mph - N/A   Mostly Cloudy
8:52 PM 50.0 °F - 50.0 °F 100% 29.92 in 10.0 mi ESE 2.3 mph - N/A Rain Light Rain
8:58 PM 50.4 °F - 50.4 °F 100% 29.93 in 10.0 mi East 2.3 mph - 0.00 in Rain Light Rain
9:04 PM 50.0 °F - 50.0 °F 100% 29.91 in 10.0 mi East 2.3 mph - N/A   Mostly Cloudy
9:58 PM 52.3 °F - 52.2 °F 99% 29.91 in 10.0 mi SW 1.2 mph - 0.00 in   Overcast
10:58 PM 50.5 °F - 50.5 °F 100% 29.88 in 10.0 mi Calm Calm - N/A   Overcast
11:35 PM 51.8 °F - 51.8 °F 100% 29.86 in 10.0 mi WNW 4.6 mph - N/A Rain Light Rain
11:47 PM 51.8 °F - 51.8 °F 100% 29.86 in 10.0 mi WNW 4.6 mph - N/A   Overcast
11:51 PM 51.8 °F - 51.8 °F 100% 29.85 in 10.0 mi NW 4.6 mph - N/A Rain Light Rain
11:58 PM 52.5 °F - 52.2 °F 99% 29.86 in 10.0 mi NW 3.5 mph - 0.00 in Rain Light Rain